www.pogodaiklimat.ru

Погода и климат >> Архив погоды >> Россия >> Камчатский край >> Апука


АРХИВ ПОГОДЫ в Апуке

Время (UTC), дата Ветер
(напр.,м/с)
 
Видим.   Явления Облачность Т
(С)
Тd
(С)
f
(%)
Тe
(С)
Тes
(С)
Комфортность P
(гПа)
Po
(гПа)
Тmin
(С)
Tmax
(С)
R
(мм)
R24
(мм)
S
(см)
12 12.08 СВ 1 20 км {ливн. осадки} 10/10 600 м
[Sc]
+10.6 +10.0 96 +10 +10 999.8 999.2
15 12.08 В 3 20 км 10/10 600 м
[Sc]
+10.1 +9.2 94 +8 +8 999.7 999.1
18 12.08 В 4 4000 м слаб. ливневой дождь 10/10 600 м
[Cb cap]
+10.1 +9.5 96 +7 +7 1000.2 999.6
21 12.08 Ю 3 20 км {ливн. осадки} 10/10 600 м
[Sc]
+11.0 +10.0 94 +9 +9 1000.7 1000.1 +10.0 4
00 13.08 Ю 4 20 км {ливн. осадки} 10/10 600 м
[Sc]
+11.9 +10.6 92 +10 +10 1001.2 1000.6
03 13.08 Ю 5 20 км 9/9 600 м
[Sc]
+12.4 +10.7 89 +10 +10 1001.7 1001.1
06 13.08 Ю 7 20 км 9/9 600 м
[Sc]
+11.8 +10.0 89 +9 +9 1002.3 1001.7
09 13.08 С 2 20 км 8/5 600 м
[Sc Ci fib]
+11.2 +9.8 91 +2 +2 1002.9 1002.3 +12.9
12 13.08 В 2 20 км 6/6 600 м
[Sc]
+9.0 +8.0 93 +7 +7 1003.8 1003.2
15 13.08 В 2 50 км 4/4 600 м
[Sc]
+7.4 +7.0 97 +5 +5 1004.8 1004.2
18 13.08 В 2 50 км 5/5 600 м
[Sc]
+6.6 +5.9 95 +4 +4 1006.5 1005.9
21 13.08 ЮЗ 3 50 км 4/4 600 м
[Sc]
+11.2 +8.8 85 +9 +12 1008.2 1007.6 +6.1
00 14.08 З 4 50 км 1/1 600 м
[Sc]
+13.7 +10.5 81 +12 +18 1009.2 1008.6
03 14.08 З 6 50 км ясно +14.6 +11.2 80 +13 +16 1010.1 1009.5
06 14.08 З 6 50 км ясно +14.0 +11.2 83 +12 +13 1010.7 1010.1
09 14.08 З 5 20 км 10/10 600 м
[Sc]
+12.3 +10.8 91 +10 +10 1012.6 1012.0 +14.9
12 14.08 СЗ 6 20 км 10/10 600 м
[Sc]
+12.6 +10.9 89 +10 +10 1013.4 1012.8
15 14.08 СВ 2 20 км 10/10 600 м
[Sc]
+11.5 +10.1 91 +10 +10 1013.3 1012.7
18 14.08 В 7 50 км 4/4 600 м
[Sc]
+10.7 +10.1 96 +7 +7 1013.5 1012.9
21 14.08 В 7 50 км 3/3 600 м
[Sc]
+12.5 +10.0 85 +10 +11 1014.0 1013.4 +10.1
00 15.08 З 5
{12}
50 км 3/3 600 м
[Sc]
+15.2 +11.9 81 +14 +18 1014.0 1013.4
03 15.08 З 5 50 км 5/3 600 м
[Sc Ci fib]
+15.1 +12.2 83 +14 +16 1014.3 1013.7
06 15.08 З 5 50 км 8/8 600 м
[Sc]
+14.3 +11.5 83 +13 +13 1014.6 1014.0
09 15.08 СЗ 3 20 км 10/10 600 м
[Sc]
+13.6 +13 +13 1015.5 1014.9 +17.8
12 15.08 В 6 20 км 9/9 600 м
[Sc]
+12.4 +7.7 73 +10 +10 1016.7 1016.1
15 15.08 СВ 5 20 км 10/10 600 м
[Sc]
+10.3 +7.6 83 +7 +7 1017.5 1016.9
18 15.08 СВ 6 50 км 8/8 600 м
[Sc]
+9.7 +6.5 80 +6 +6 1017.5 1016.9
21 15.08 СВ 9
{13}
50 км 6/6 600 м
[]
+11.9 +5.7 66 +9 +9 1017.3 1016.7 +9.3
00 16.08 В 7
{14}
50 км 9/4 600 м
[Sc Ci fib]
+16.1 +9.6 65 +15 +16 1015.7 1015.1
03 16.08 В 8
{15}
20 км 10/10 600 м
[Sc]
+14.2 +5.3 55 +12 +12 1014.0 1013.4
06 16.08 В 4 4000 м ливневой дождь 10/10 600 м
[Cb cap]
+9.6 +7.3 86 +7 +7 1015.5 1014.9
09 16.08 СВ 12-12
{16}
20 км {ливн. осадки} 10/10 600 м
[Sc]
+9.0 +7.7 92 +4 +4 1015.7 1015.1 +16.4 12
12 16.08 В 10-12
{16}
20 км {ливн. осадки} 10/10 600 м
[Sc]
+9.2 +6.4 83 +4 +4 1017.1 1016.5
15 16.08 В 10-12
{18}
20 км 10/10 600 м
[Sc]
+10.1 +7.8 86 +6 +6 1018.4 1017.8
18 16.08 В 10-12
{13}
20 км 9/9 600 м
[Sc]
+10.5 +7.0 79 +6 +6 1019.8 1019.2
21 16.08 В 10-12
{13}
50 км 3/3 600 м
[Sc]
+12.8 +8.8 77 +9 +10 1021.0 1020.4 +8.6
00 17.08 В 9-13
{13}
50 км 8/8 600 м
[Sc]
+13.4 +9.1 75 +11 +11 1022.2 1021.6
03 17.08 ЮВ 9-12
{14}
50 км 6/6 600 м
[Sc]
+16.1 +10.0 67 +14 +15 1022.3 1021.7
06 17.08 В 9-12
{14}
20 км 10/10 600 м
[Sc]
+15.2 +9.8 70 +13 +13 1021.8 1021.2
09 17.08 В 7
{13}
4000 м слаб. ливневой дождь 10/10 600 м
[Cb cap]
+12.2 +10.1 87 +9 +9 1021.6 1021.0 +16.8 1
12 17.08 В 7 4000 м 10/10 600 м
[Cb cap]
+12.0 +10.1 88 +9 +9 1020.9 1020.3
15 17.08 В 8
{12}
4000 м слаб. ливневой дождь 10/10 600 м
[Cb cap]
+11.3 +10.5 95 +8 +8 1019.4 1018.8
18 17.08 В 5 10 км {ливн. осадки} 10/10 600 м
[Sc]
+11.3 +10.1 92 +9 +9 1019.4 1018.8
21 17.08 В 7 20 км 10/10 600 м
[Sc]
+12.6 +10.5 87 +10 +10 1020.0 1019.4 +11.1 3
00 18.08 В 8 20 км 10/10 600 м
[Sc]
+13.2 +10.5 84 +10 +10 1020.6 1020.0
03 18.08 В 10 20 км 10/10 600 м
[Sc]
+12.3 +10.3 88 +9 +9 1021.5 1020.9
06 18.08 В 8-12
{14}
20 км 10/10 600 м
[Sc]
+12.4 +10.7 89 +9 +9 1022.0 1021.4
09 18.08 В 8-12
{14}
20 км {ливн. осадки} 10/10 600 м
[Sc]
+11.9 +10.4 91 +8 +8 1023.8 1023.2 +13.9 0.4
12 18.08 В 7-12
{12}
20 км {ливн. осадки} 10/10 600 м
[Sc]
+12.0 +10.5 91 +9 +9 1025.2 1024.6
15 18.08 В 8 20 км 10/10 600 м
[Sc]
+12.5 +10.1 85 +9 +9 1026.3 1025.7
18 18.08 В 9 20 км 10/10 600 м
[Sc]
+12.2 +9.9 86 +9 +9 1027.5 1026.9
21 18.08 В 7
{13}
20 км 6/6 600 м
[Sc]
+14.3 +10.5 78 +12 +13 1028.6 1028.0 +11.5 0.7
00 19.08 ЮВ 4 20 км 9/9 600 м
[Sc]
+16.7 +11.2 70 +16 +17 1028.9 1028.3
03 19.08 З 7 50 км 9/4 600 м
[Sc Ci fib]
+12.5 +10.4 87 +10 +11 1028.6 1028.0
06 19.08 З 7 50 км 4/4 600 м
[Sc]
+12.3 +9.8 85 +9 +10 1028.3 1027.7
09 19.08 З 5 20 км 10/10 600 м
[Sc]
+11.0 +9.0 87 +8 +8 1028.0 1027.4 +17.1

 

Местоположение метеостанции Апука (Камчатский край, Россия): широта 60.43 долгота 169.60 высота над уровнем моря 5 м.

В архиве по умолчанию представлена погода в Апуке за последнюю неделю. Архивные данные за месяц целиком и за предыдущие месяцы, начиная с января 2011 года, Вы можете получить, выбрав интересующий диапазон дат из раскрывающегося списка и нажав кнопку "Ввод!".


*Определитесь, кто Вы:
робот инопланетянин человек

Внимание! Время в таблицах - всемирное. Для получения местного времени необходимо прибавить поправку, которая равна 12 ч.

Смотрите также архив погоды в соседних городах и на ближайших метеорологических станциях:

Погода в Тиличиках (Камчатский край, Россия) (198 км)
Погода в Каменском (Камчатский край, Россия) (291 км)
Погода в Слаутном (Камчатский край, Россия) (322 км)
Погода в Чемурнауте (Камчатский край, Россия) (362 км)
Погода в Оссоре (Камчатский край, Россия) (392 км)
Погода в Марково (Чукотка, Россия) (474 км)
Погода на Мысе Озерном (Камчатский край, Россия) (479 км)
Погода в Верхне-Пенжино (Камчатский край, Россия) (505 км)
Погода в Танюрере (Чукотка, Россия) (551 км)
Погода в Палане (Камчатский край, Россия) (563 км)

Пояснения к столбцам:

Ветер - указаны скорость ветра в м/с - средняя за 10 мин, порывы в срок и между сроками (в фигурных скобках) и направление, откуда дует ветер: С - северный, СВ - северо-восточный, В - восточный, ЮВ - юго-восточный, Ю - южный, ЮЗ - юго-западный, З - западный, СЗ - северо-западный.
Видимость - горизонтальная дальность видимости в метрах или километрах. При видимости от 1 до 10 км при отсутствии осадков обычно наблюдается дымка, при ухудшении видимости до 1 км и менее - туман. В сухую погоду видимость может ухудшаться дымом, пылью или мглою.
Явления - указаны атмосферные явления, наблюдавшиеся в срок или в последний час перед сроком; фигурными скобками обозначены явления, наблюдавшиеся между сроками (за 1-3 часа до срока); квадратными скобками обозначены град или гололедные отложения с указанием их диаметра в мм.
Облачность - указаны через наклонную черту общая и нижняя облачность в баллах и высота нижней границы облаков в метрах; квадратными скобками обозначены формы облаков: Ci - перистые, Cs - перисто-слоистые, Cc - перисто-кучевые, Ac - высококучевые, As - высокослоистые, Sc - слоисто-кучевые, Ns - слоисто-дождевые, Cu - кучевые, Cb - кучево-дождевые. Подробнее классификацию облаков см. в Атласе облаков (PDF).
T - Температура воздуха - температура, измеренная на высоте 2 м над землей.
Td - Температура точки росы - температура, при понижении до которой содержащийся в воздухе водяной пар достигнет насыщения.
f - Относительная влажность воздуха - влажноcть воздуха, измеренная на высоте 2 м над землей.
Te - Эффективная температура - температура, которую ощущает одетый по сезону человек в тени. Характеристика душности погоды. При расчете учитывается влияние влажности воздуха и скорости ветра на теплоощущения человека.
Tes - Эффективная температура на солнце - температура, которую ощущает человек, с поправкой на солнечный нагрев. Характеристика знойности погоды. Зависит от высоты солнца над горизонтом, облачности и скорости ветра. Ночью, в пасмурную погоду, а также при ветре 12 м/с и более поправка равна нулю.
P - Атмосферное давление - приведенное к уровню моря атмосферное давление.
Po - Атмосферное давление - измеренное на уровне метеостанции атмосферное давление.
Tmin - Минимальная температура - минимум температуры воздуха на высоте 2 м над землей.
Tmax - Максимальная температура - максимум температуры воздуха на высоте 2 м над землей.
R - Количество осадков - Количество выпавших осадков за период времени, мм. При наведении курсора мыши на число - период времени, за который выпало указанное количество осадков.
R24 - Количество осадков - Количество выпавших осадков за 24 часа, мм.
S - Снежный покров - Высота снежного покрова, см. При наведении курсора мыши на число - состояние снежного покрова и степень покрытия местности в баллах.